Location: Peebles
(55.6412°N, 3.1714°W)
Time: 16:44:17
(UTC+01:00)

FENGYUN 1C DEB - Visible Passes

Search period start: 03 July 2022 00:00
Search period end: 13 July 2022 00:00
Orbit: 732 x 849 km, 99.0° (Epoch: 02 July)

Date Brightness Start Highest point End Pass type
(mag) Time Alt. Az. Time Alt. Az. Time Alt. Az.
03 Jul ? 03:01:52 10° ENE 03:04:05 13° NE 03:06:18 10° NNE visible
06 Jul ? 03:12:41 10° ENE 03:15:23 15° NE 03:18:04 10° NNE visible
07 Jul ? 02:46:09 10° NE 02:46:32 10° NE 02:46:55 10° NE visible
09 Jul ? 03:23:35 10° E 03:26:41 17° NE 03:29:45 10° N visible
10 Jul ? 02:56:10 10° ENE 02:57:47 12° NE 02:59:24 10° NNE visible
12 Jul ? 03:34:33 10° E 03:37:59 19° NE 03:41:23 10° N visible
